Weather History for Jacksonville Craig, FL

Change the Weather History Date:

Sunday, April 21, 2013

  Actual Average Record
Temperature  
Mean Temperature 64 °F -  
Max Temperature 69 °F 77 °F 91 °F (2002)
Min Temperature 59 °F 57 °F 54 °F (2001)
Degree Days  
Heating Degree Days 1    
Growing Degree Days 14 (Base 50)    
Moisture  
Dew Point 56 °F    
Average Humidity 73    
Maximum Humidity 84    
Minimum Humidity 65    
Precipitation  
Precipitation 0.01 in - - ()
Sea Level Pressure  
Sea Level Pressure 30.18 in    
Wind  
Wind Speed 11 mph (NE)    
Max Wind Speed 17 mph    
Max Gust Speed 30 mph    
Visibility 9 miles    
Events Rain    
Averages and records for this station are not official NWS values.
T = Trace of Precipitation, MM = Missing Value Source: NWS Daily Summary

Daily Weather History Graph

Daily Weather History Graph

Search for Another Location

Airport:

Trip Planner

Search our weather history database for the weather conditions in past years. The results will help you decide how hot, cold, wet, or windy it might be!

Date:

Astronomy

Apr. 21, 2013 Rise Set
Actual Time 6:52 AM EDT 7:57 PM EDT
Civil Twilight 6:27 AM EDT 8:22 PM EDT
Nautical Twilight 5:57 AM EDT 8:52 PM EDT
Astronomical Twilight 5:27 AM EDT 9:22 PM EDT
Moon 3:58 PM EDT (4/21) 3:54 AM EDT (4/21)
Length of Visible Light 13h 55m
Length of Day
13h 05m
Waxing Gibbous, 79% of the Moon is Illuminated
Apr 21
Waxing Gibbous
Apr 25
Full
May 2
Last Quarter
May 9
New
May 18
First Quarter

Hourly Weather History & Observations

Time (EDT) Temp. Dew Point Humidity Pressure Visibility Wind Dir Wind Speed Gust Speed Precip Events Conditions
12:48 AM 59.0 °F 51.8 °F 77% 30.21 in 10.0 mi NNE 6.9 mph - N/A   Mostly Cloudy
12:53 AM 60.1 °F 51.1 °F 72% 30.20 in 10.0 mi NNE 6.9 mph - N/A   Mostly Cloudy
1:53 AM 61.0 °F 52.0 °F 72% 30.18 in 10.0 mi NE 8.1 mph - N/A   Overcast
2:53 AM 62.1 °F 50.0 °F 65% 30.17 in 10.0 mi NE 8.1 mph - N/A   Overcast
3:27 AM 60.8 °F 51.8 °F 72% 30.17 in 10.0 mi NE 5.8 mph - N/A   Mostly Cloudy
3:53 AM 61.0 °F 50.0 °F 67% 30.17 in 10.0 mi NE 9.2 mph - N/A   Mostly Cloudy
4:53 AM 61.0 °F 50.0 °F 67% 30.16 in 10.0 mi NE 9.2 mph - N/A   Scattered Clouds
5:53 AM 62.1 °F 51.1 °F 67% 30.17 in 10.0 mi NE 8.1 mph 17.3 mph N/A   Overcast
6:53 AM 62.1 °F 51.1 °F 67% 30.17 in 10.0 mi ENE 11.5 mph - N/A   Mostly Cloudy
7:53 AM 63.0 °F 53.1 °F 70% 30.19 in 10.0 mi NE 11.5 mph - N/A   Mostly Cloudy
8:53 AM 64.9 °F 54.0 °F 68% 30.19 in 10.0 mi NE 12.7 mph - N/A   Overcast
9:53 AM 66.9 °F 55.0 °F 66% 30.19 in 10.0 mi NE 15.0 mph - N/A   Overcast
10:14 AM 66.2 °F 55.4 °F 68% 30.20 in 10.0 mi NE 13.8 mph 25.3 mph N/A   Mostly Cloudy
10:53 AM 68.0 °F 55.9 °F 65% 30.21 in 10.0 mi NE 15.0 mph 19.6 mph N/A   Overcast
11:53 AM 68.0 °F 57.9 °F 70% 30.22 in 10.0 mi NE 13.8 mph 23.0 mph N/A   Overcast
12:53 PM 66.9 °F 57.9 °F 73% 30.22 in 10.0 mi NNE 11.5 mph 19.6 mph N/A   Overcast
1:53 PM 68.0 °F 59.0 °F 73% 30.20 in 10.0 mi NNE 13.8 mph 19.6 mph 0.00 in   Overcast
2:53 PM 68.0 °F 59.0 °F 73% 30.18 in 10.0 mi NE 13.8 mph 27.6 mph N/A   Overcast
3:53 PM 69.1 °F 59.0 °F 70% 30.15 in 10.0 mi NE 17.3 mph 26.5 mph N/A   Overcast
4:53 PM 68.0 °F 59.0 °F 73% 30.12 in 10.0 mi NE 16.1 mph 23.0 mph N/A   Overcast
5:53 PM 66.9 °F 60.1 °F 79% 30.16 in 8.0 mi NE 13.8 mph 24.2 mph N/A   Overcast
6:30 PM 66.2 °F 60.8 °F 83% 30.15 in 7.0 mi NE 13.8 mph 23.0 mph N/A   Overcast
6:53 PM 66.9 °F 60.1 °F 79% 30.16 in 7.0 mi NE 10.4 mph 25.3 mph N/A   Overcast
7:53 PM 66.9 °F 60.1 °F 79% 30.17 in 6.0 mi NNE 15.0 mph 26.5 mph N/A   Haze
8:53 PM 66.9 °F 61.0 °F 81% 30.17 in 7.0 mi NE 17.3 mph 26.5 mph 0.00 in Rain Light Rain
9:53 PM 66.9 °F 61.0 °F 81% 30.17 in 7.0 mi NNE 15.0 mph 26.5 mph 0.00 in Rain Light Rain
10:53 PM 66.0 °F 61.0 °F 84% 30.15 in 6.0 mi NE 17.3 mph 29.9 mph 0.01 in Rain Light Rain
11:53 PM 66.0 °F 61.0 °F 84% 30.16 in 7.0 mi NNE 16.1 mph 24.2 mph 0.00 in   Overcast